Завалье

Украина / Кировоградская область     48°12′32″N   30°00′44″E
темп.,
°C
ветер,
м/с
пор.,
м/с
влажн.,
%
обл.,
%
осадки,
мм/ч
давл.,
гПа
погр.,
м
9 мая, вс
вс900:00+5сз410824 0.0 1020273
03:00+4сз510870 0.0 1021278
06:00+3сз410904 0.0 1023247
09:00+8сз57670 0.0 1024840
12:00+12сз674942 0.0 10241936
15:00+14сз5641100 0.0 10242491
18:00+14ссз454451 0.0 10242107
21:00+9сз11605 0.0 102610
10 мая, пн
пн1000:00+7в22675 0.0 102711
03:00+6ю11715 0.0 102710
06:00+6в11710 0.0 102710
09:00+12вюв22575 0.0 1028369
12:00+16вюв22430 0.0 10271686
15:00+18вюв11390 0.0 10251826
18:00+17св21411 0.0 10241769
21:00+11всв33610 0.0 102438
11 мая, вт
вт1100:00+8всв35690 0.0 102485
03:00+7св22690 0.0 102423
06:00+6с34732 0.0 102362
09:00+12с585531 0.0 1021615
12:00+17с56536 0.0 10201091
15:00+19с565720 0.0 10181187
18:00+19ссв5765100 0.0 10161226
21:00+16св6107726 0.1 1015651
12 мая, ср
ср1200:00+10всв48935 0.0 1017384
03:00+7св37965 0.0 1016191
06:00+6св5109519 0.0 1016369
09:00+9всв687787 0.1 1016904
12:00+10в5661100 0.1 10151314
15:00+12в3558100 0.1 10151271
18:00+13юв2354100 0.0 10131496
21:00+11вюв225996 0.0 101322
13 мая, чт
чт1300:00+8ююв227411 0.0 101311
03:00+6вюв22789 0.0 101323
06:00+8вюв387311 0.0 1012226
09:00+12юв5863100 0.0 1012550
12:00+15юв5762100 0.1 1011812
15:00+17ююв6962100 0.1 10101520
18:00+15ююв2481100 1.4 100988
21:00+13ююв1189100 1.8 100911